This is the latest recevied weather packets stored in our database for station/object DB0OHL. If no packets are shown the sender has not sent any weather packets the latest 10 day(s).
| Time | Temp. | Humidity | Pressure | Rain* | Wind** | Luminosity | Snow |
|---|---|---|---|---|---|---|---|
| 1778232366 | 15° C | 80% | 1017.9 hPa | 0 mm | - | - | - |
| 1778231764 | 13.89° C | 82% | 1018 hPa | 0 mm | - | - | - |
| 1778231161 | 13.33° C | 83% | 1018.1 hPa | 0 mm | - | - | - |
| 1778230559 | 13.33° C | 83% | 1018.2 hPa | 0 mm | - | - | - |
| 1778229956 | 13.33° C | 85% | 1018.4 hPa | 0 mm | - | - | - |
| 1778229354 | 12.78° C | 88% | 1018.3 hPa | 0 mm | - | - | - |
| 1778228751 | 11.11° C | 97% | 1018.5 hPa | 0 mm | - | - | - |
| 1778228149 | 11.11° C | 99% | 1018.5 hPa | 0 mm | - | - | - |
| 1778227546 | 10° C | 99% | 1018.6 hPa | 0 mm | - | - | - |
| 1778226943 | 9.44° C | 99% | 1018.7 hPa | 0 mm | - | - | - |
| 1778226341 | 9.44° C | 99% | 1018.9 hPa | 0 mm | - | - | - |
| 1778225738 | 8.89° C | 99% | 1018.9 hPa | 0 mm | - | - | - |
| 1778225136 | 8.33° C | 99% | 1018.9 hPa | 0 mm | - | - | - |
| 1778224533 | 7.78° C | 99% | 1018.9 hPa | 0 mm | - | - | - |
| 1778223931 | 7.78° C | 99% | 1018.8 hPa | 0 mm | - | - | - |
| 1778223328 | 7.22° C | 99% | 1018.7 hPa | 0 mm | - | - | - |
| 1778222726 | 6.67° C | 99% | 1018.6 hPa | 0 mm | - | - | - |
| 1778222123 | 6.67° C | 99% | 1018.4 hPa | 0 mm | - | - | - |
| 1778221521 | 6.67° C | 99% | 1018.4 hPa | 0 mm | - | - | - |
| 1778220918 | 6.67° C | 99% | 1018.2 hPa | 0 mm | - | - | - |
| 1778220316 | 6.67° C | 99% | 1018.4 hPa | 0 mm | - | - | - |
| 1778219773 | 6.11° C | 99% | 1018.3 hPa | 0 mm | - | - | - |
| 1778219171 | 6.11° C | 99% | 1018.3 hPa | 0 mm | - | - | - |
| 1778218568 | 6.11° C | 99% | 1018.2 hPa | 0 mm | - | - | - |
| 1778217966 | 6.11° C | 99% | 1018.2 hPa | 0 mm | - | - | - |
* Rain latest hour (hover to see other rain measurements)
** Current wind speed in m/s (hover to see current wind gust speed)